Station NCDV2 - 8635027 - Dahlgren, VA Image indicating link to RSS feed of recent meteorological observations for station NCDV2


Conditions at NCDV2 as of
(7:18 pm EDT)
2318 GMT on 05/22/2024:
     

Click on the graph icon in the table below to see a time series plot of the last five days of that observation.

5-day plot - Wind Direction Wind Direction (WDIR): S ( 190 deg true )
5-day plot - Wind Speed Wind Speed (WSPD): 4.1 kts
5-day plot - Wind Gust Wind Gust (GST): 6.0 kts
5-day plot - Atmospheric Pressure Atmospheric Pressure (PRES):29.86 in
5-day plot - Air Temperature Air Temperature (ATMP): 84.0 °F
5-day plot - Water Temperature Water Temperature (WTMP): 75.9 °F
5-day plot - Wind Speed at 10 Meters Wind Speed at 10 meters (WSPD10M): 3.9 kts
5-day plot - Wind Speed at 20 Meters Wind Speed at 20 meters (WSPD20M): 5.8 kts
5-day plot -  Wind Speed, Wind Gust and Atmospheric Pressure Combined plot of Wind Speed, Gust, and Air Pressure
NOS Water Level Observation Network Water Level
Previous observations
TIME
(EDT)
5-day plot - Wind Direction
WDIR
 
5-day plot - Wind Speed
WSPD
kts
5-day plot - Wind Gust
GST
kts
5-day plot - Wave Height
WVHT
ft
5-day plot - Dominant Wave Period
DPD
sec
5-day plot - Average Wave Period
APD
sec
5-day plot - Mean Wave Direction
MWD
 
5-day plot - Atmospheric Pressure
PRES
in
5-day plot - Pressure Tendency
PTDY
in
5-day plot - Air Temperature
ATMP
°F
5-day plot - Water Temperature
WTMP
°F
5-day plot - Dew Point
DEWP
°F
5-day plot - Salinity
SAL
psu
5-day plot - Visibility
VIS
nmi
5-day plot - Tide (above MLLW)
TIDE
ft
2024-05-22 07:12 pm S 5.1 6.0----29.86- 84.7 76.6----
2024-05-22 07:06 pm S 4.1 5.1----29.86- 84.4 76.8----
2024-05-22 07:00 pm S 4.1 6.0----29.86-0.02 84.7 76.1----
2024-05-22 06:54 pm S 4.1 6.0----29.85- 84.9 75.6----
2024-05-22 06:48 pmSSE 5.1 6.0----29.85-- 75.7----
2024-05-22 06:42 pmSSE 6.0 8.9----29.85-- 75.4----
2024-05-22 06:36 pmSSE 6.0 8.0----29.84-- 75.2----
2024-05-22 06:30 pmSSE 5.1 8.9----29.84- 84.7 75.2----
2024-05-22 06:24 pmSSE 6.0 8.9----29.84- 84.9 75.2----
2024-05-22 06:18 pmSSE 8.0 9.9----29.84- 84.9 75.4----
2024-05-22 06:12 pmSSE 6.0 8.9----29.84- 84.4 75.7----
2024-05-22 06:06 pmSSE 6.0 8.0----29.85- 84.7 75.6----
2024-05-22 06:00 pm-------29.85-0.04 84.4 76.1----
2024-05-22 05:54 pm-------29.86- 84.7 76.8----
2024-05-22 05:48 pm S 5.1 7.0----29.86-- 77.4----
2024-05-22 05:42 pm S 5.1 8.9----29.86-- 77.5----
2024-05-22 05:36 pm S 7.0 9.9----29.86-- 77.5----
2024-05-22 05:30 pm S 6.0 8.9----29.87- 85.5 77.7----
2024-05-22 05:24 pm S 7.0 9.9----29.87- 85.6 78.1----
2024-05-22 05:18 pmSSW 5.1 8.0----29.87- 85.8 78.1----
2024-05-22 05:12 pmSSW 8.0 12.0----29.87- 86.2 77.7----
2024-05-22 05:06 pmSSE 6.0 8.9----29.87- 86.0 77.7----
2024-05-22 05:00 pmSSW 7.0 8.9----29.87- 86.5 77.5----
2024-05-22 04:54 pm S 6.0 11.1----29.87- 86.2 77.4----
2024-05-22 04:48 pm S 5.1 8.0----29.87- 86.2 77.5----
2024-05-22 04:42 pmSSW 5.1 8.0----29.87- 86.5 77.5----
2024-05-22 04:36 pmSSW 6.0 8.0----29.87- 86.5 77.4----
2024-05-22 04:30 pmSSW 7.0 8.9----29.87- 86.4 77.4----
2024-05-22 04:24 pm S 7.0 9.9----29.87- 86.2 77.4----
2024-05-22 04:18 pm S 7.0 9.9----29.87- 86.0 77.4----
2024-05-22 04:12 pm S 8.0 11.1----29.87- 85.8 77.2----
2024-05-22 04:06 pm SW 7.0 12.0----29.87- 86.2 77.0----
2024-05-22 04:00 pmSSW 6.0 8.0----29.88-0.06 86.4 77.4----
2024-05-22 03:54 pmSSW 6.0 8.9----29.88- 86.4 77.5----
2024-05-22 03:48 pm S 4.1 9.9----29.88- 86.0 77.5----
2024-05-22 03:42 pmSSW 8.9 11.1----29.88- 86.2 77.0----
2024-05-22 03:36 pmSSW 5.1 12.0----29.88- 86.4 76.5----
2024-05-22 03:30 pm SW 7.0 9.9----29.89- 85.6 75.7----
2024-05-22 03:24 pmSSW 5.1 6.0----29.89- 86.4 75.0----
2024-05-22 03:18 pmSSW 4.1 8.0----29.89- 86.4 74.8----
2024-05-22 03:12 pm S 4.1 8.0----29.89- 86.0 74.8----
2024-05-22 03:06 pm S 7.0 11.1----29.89- 85.1 74.8----
2024-05-22 03:00 pm S 2.9 9.9----29.90-0.05 86.0 74.5----
2024-05-22 02:54 pm S 8.0 9.9----29.90- 85.3 74.3----
2024-05-22 02:48 pmSSW 6.0 9.9----29.91- 85.3 74.5----
2024-05-22 02:42 pm S 7.0 9.9----29.91- 84.9 74.5----
2024-05-22 02:36 pmSSW 5.1 11.1----29.91- 85.1 74.5----
2024-05-22 02:30 pmSSW 1.9 8.0----29.91- 85.6 74.5----
2024-05-22 02:24 pmWSW 6.0 8.0----29.91- 84.2 74.5----
2024-05-22 02:18 pmSSW 4.1 5.1------- 74.5----
2024-05-22 02:12 pm SW 4.1 8.0------- 74.7----
2024-05-22 02:06 pm S 5.1 7.0------- 74.7----
2024-05-22 02:00 pm S 5.1 8.0------- 74.8----
2024-05-22 01:54 pm SW 2.9 6.0------- 74.8----
2024-05-22 01:48 pmESE 5.1 6.0------- 75.0----
2024-05-22 01:42 pm E 4.1 5.1------- 75.0----
2024-05-22 01:36 pmESE 5.1 6.0------- 75.2----
2024-05-22 01:30 pm E 5.1 8.9----29.93-------
2024-05-22 01:24 pm SE 2.9 7.0----29.93-------
2024-05-22 01:18 pm E 6.0 8.0------- 75.2----
2024-05-22 01:12 pmESE 5.1 7.0------- 75.2----
2024-05-22 01:06 pmESE 5.1 8.9------- 75.0----
2024-05-22 01:00 pmESE 6.0 8.9----29.93-0.04- 75.0----
2024-05-22 12:54 pm E 7.0 9.9----29.93-- 74.8----
2024-05-22 12:48 pm E 7.0 9.9------- 74.7----
2024-05-22 12:42 pmESE 8.0 9.9------- 74.3----
2024-05-22 12:36 pmESE 6.0 8.9------- 74.1----
2024-05-22 12:30 pmESE 6.0 8.0------------
2024-05-22 12:24 pmESE 6.0 9.9------------
2024-05-22 12:18 pmESE 8.0 8.9------ 76.1 74.1----
2024-05-22 12:12 pm E 8.0 8.9------ 76.3 74.1----
2024-05-22 12:06 pmESE 8.0 9.9------ 75.6 74.1----
2024-05-22 12:00 pm E 8.0 8.9----29.94-0.04 76.3 74.1----
2024-05-22 11:54 amESE 7.0 8.9----29.95- 75.7 74.1----
2024-05-22 11:48 amESE 7.0 8.9----29.95- 75.4 74.1----
2024-05-22 11:42 amESE 6.0 8.9----29.95- 75.4 74.1----
2024-05-22 11:36 am E 6.0 8.0----29.95- 75.9 74.1----
2024-05-22 11:30 amESE 6.0 8.0----29.95- 75.2 73.9----
2024-05-22 11:24 am E 7.0 8.9----29.96- 74.8 73.9----
2024-05-22 11:18 am E 6.0 8.0----29.96- 74.5 73.9----
2024-05-22 11:12 amESE 7.0 8.0----29.96- 74.5 73.9----
2024-05-22 11:06 am E 7.0 8.9----29.96- 73.9 73.9----
2024-05-22 11:00 amESE 7.0 8.9----29.96-0.02 74.1 73.9----
2024-05-22 10:54 am E 6.0 8.0----29.96- 74.1 73.9----
2024-05-22 10:48 amESE 6.0 8.9----29.96-- 73.8----
2024-05-22 10:42 amESE 6.0 8.0----29.96-- 73.8----
2024-05-22 10:36 amESE 7.0 8.9----29.96-- 73.8----
2024-05-22 10:30 amESE 6.0 8.0------------
2024-05-22 10:24 amESE 7.0 8.0------------
2024-05-22 10:18 amESE 7.0 8.9------------
2024-05-22 10:12 amESE 5.1 8.0------------
2024-05-22 10:06 amESE 5.1 9.9------------
2024-05-22 10:00 amESE 8.0 9.9----29.97+0.00 72.0 72.7----
2024-05-22 09:54 amESE 8.0 9.9----29.96- 71.6 72.5----
2024-05-22 09:48 amESE 6.0 8.9----29.96-- 72.7----
2024-05-22 09:42 amESE 7.0 8.0----29.97-- 72.5----
2024-05-22 09:36 amESE 7.0 8.0----29.97-- 72.5----
2024-05-22 09:30 amESE 7.0 8.0------------
2024-05-22 09:24 am E 6.0 7.0------------
2024-05-22 09:18 am S 2.9 5.1----29.98-- 72.5----
2024-05-22 09:12 amSSE 2.9 6.0----29.98-- 72.5----
2024-05-22 09:06 amSSW 2.9 6.0----29.98-- 72.5----
2024-05-22 09:00 amSSW 5.1 6.0----29.98+0.02 73.9 72.5----
2024-05-22 08:54 am SW 2.9 5.1----29.98- 73.2 72.5----
2024-05-22 08:48 amSSW 1.9 6.0----29.98- 73.2 72.5----
2024-05-22 08:42 am SW 2.9 5.1----29.98- 72.3 72.5----
2024-05-22 08:36 am SW 4.1 6.0----29.98- 72.0 72.5----
2024-05-22 08:30 am SW 2.9 4.1----29.98- 71.8 72.3----
2024-05-22 08:24 amSSW 2.9 4.1----29.98- 71.6 72.3----
2024-05-22 08:18 amSSW 1.9 6.0----29.98- 71.4 72.3----
2024-05-22 08:12 amSSW 2.9 4.1----29.98- 71.1 72.3----
2024-05-22 08:06 amSSW 2.9 2.9----29.98- 70.7 72.3----
2024-05-22 08:00 amSSW 2.9 4.1----29.98+0.02 70.2 72.3----
2024-05-22 07:54 amSSW 1.9 4.1----29.98- 69.8 72.3----
2024-05-22 07:48 amWSW 1.9 5.1----29.98- 69.3 72.3----
2024-05-22 07:42 amSSW 2.9 4.1----29.98- 69.1 72.3----
2024-05-22 07:36 am- 0.0 4.1----29.98- 69.1 72.5----
2024-05-22 07:30 amSSW 4.1 5.1----29.98- 68.5 72.5----
2024-05-22 07:24 amSSW 2.9 5.1----29.97- 68.2 72.5----
2024-05-22 07:18 amSSW 1.9 5.1----29.97- 68.0 72.5----
2024-05-22 07:12 amSSW 2.9 5.1----29.97- 67.5 72.5----
2024-05-22 07:06 amSSW 1.9 4.1----29.97- 66.9 72.5----
2024-05-22 07:00 am SW 2.9 6.0----29.97+0.00 66.9 72.5----
2024-05-22 06:54 am SW 2.9 5.1----29.97- 66.6 72.5----
2024-05-22 06:48 am SW 1.9 4.1----29.97- 66.6 72.5----
2024-05-22 06:42 am S 1.9 2.9----29.96- 66.6 72.5----
2024-05-22 06:36 am S 1.9 5.1----29.97- 66.6 72.5----
2024-05-22 06:30 am S 1.9 4.1----29.96- 66.7 72.5----
2024-05-22 06:24 am S 1.9 2.9----29.96- 66.6 72.5----
2024-05-22 06:18 am SE 1.9 4.1----29.96- 66.6 72.5----
2024-05-22 06:12 am S 1.9 2.9----29.96- 66.4 72.5----
2024-05-22 06:06 am- 0.0 1.9----29.96- 66.6 72.5----
2024-05-22 06:00 am S 1.0 4.1----29.96+0.00 66.4 72.5----
2024-05-22 05:54 am SW 1.0 2.9----29.96- 66.4 72.5----
2024-05-22 05:48 am SW 1.9 4.1----29.96- 66.4 72.5----
2024-05-22 05:42 am SW 1.9 4.1----29.96- 66.4 72.5----
2024-05-22 05:36 am SW 1.9 4.1----29.96- 66.2 72.5----
2024-05-22 05:30 am SW 1.9 4.1----29.96- 66.2 72.3----
2024-05-22 05:24 am S 1.9 4.1----29.96- 66.0 72.1----
2024-05-22 05:18 am S 2.9 4.1----29.96- 65.8 72.1----
2024-05-22 05:12 amSSW 1.9 4.1----29.96- 65.8 72.3----
2024-05-22 05:06 amSSW 1.9 5.1----29.96- 65.8 72.3----
2024-05-22 05:00 amSSW 1.9 5.1----29.96-0.01 65.8 72.3----
2024-05-22 04:54 am SW 2.9 6.0----29.96- 65.8 72.3----
2024-05-22 04:48 am SW 4.1 6.0----29.96- 65.8 72.3----
2024-05-22 04:42 amWSW 4.1 5.1----29.96- 65.8 72.5----
2024-05-22 04:36 am SW 4.1 5.1----29.96- 66.0 72.7----
2024-05-22 04:30 am SW 2.9 4.1----29.96- 65.8 72.7----
2024-05-22 04:24 am SW 2.9 6.0----29.96- 65.7 72.5----
2024-05-22 04:18 am SW 2.9 6.0----29.96- 65.7 72.5----
2024-05-22 04:12 am SW 4.1 5.1----29.96- 65.5 72.5----
2024-05-22 04:06 am SW 4.1 7.0----29.96- 65.7 72.7----
2024-05-22 04:00 am SW 5.1 6.0----29.96+0.00 65.5 72.7----
2024-05-22 03:54 am SW 4.1 6.0----29.97- 65.3 72.7----
2024-05-22 03:48 am SW 5.1 7.0----29.97- 65.3 72.7----
2024-05-22 03:42 amSSW 4.1 6.0----29.96- 65.3 72.7----
2024-05-22 03:36 am SW 4.1 6.0----29.96- 65.5 72.7----
2024-05-22 03:30 am SW 2.9 5.1----29.96- 65.5 72.7----
2024-05-22 03:24 am SW 4.1 5.1----29.96- 65.3 72.7----
2024-05-22 03:18 am SW 2.9 5.1----29.96- 65.7 72.9----
2024-05-22 03:12 am SW 4.1 6.0----29.96- 65.7 72.9----
2024-05-22 03:06 amSSW 4.1 6.0----29.96- 65.7 72.9----
2024-05-22 03:00 am S 2.9 5.1----29.96+0.00 65.7 72.9----
2024-05-22 02:54 am S 4.1 6.0----29.96- 65.7 72.9----
2024-05-22 02:48 am S 1.9 5.1----29.96- 65.7 72.9----
2024-05-22 02:42 am S 2.9 5.1----29.96- 65.5 72.9----
2024-05-22 02:36 am S 1.9 5.1----29.96- 65.7 73.0----
2024-05-22 02:30 am S 2.9 5.1----29.96- 65.7 73.0----
2024-05-22 02:24 amSSW 2.9 4.1----29.96- 65.7 73.0----
2024-05-22 02:18 amSSW 1.9 2.9----29.97- 65.7 73.0----
2024-05-22 02:12 am SW 1.0 4.1----29.97- 65.8 73.0----
2024-05-22 02:06 amSSW 1.9 2.9----29.97- 65.7 73.0----
2024-05-22 02:00 amSSW 1.9 2.9----29.97+0.01 65.7 73.0----
2024-05-22 01:54 amSSW 1.9 4.1----29.98- 65.8 73.0----
2024-05-22 01:48 am S 1.9 4.1----29.97- 65.7 73.0----
2024-05-22 01:42 am S 2.9 4.1----29.97- 65.7 73.0----
2024-05-22 01:36 am S 2.9 5.1----29.97- 65.8 73.2----
2024-05-22 01:30 am S 2.9 5.1----29.97- 66.2 73.2----
2024-05-22 01:24 amSSE 4.1 5.1----29.96- 66.2 73.2----
2024-05-22 01:18 amSSE 4.1 6.0----29.96- 66.4 73.2----
2024-05-22 01:12 amSSE 4.1 5.1----29.96- 66.4 73.2----
2024-05-22 01:06 am S 1.9 2.9----29.96- 66.6 73.2----
2024-05-22 01:00 amSSE 2.9 4.1----29.96+0.00 66.6 73.2----
2024-05-22 12:54 amSSE 2.9 2.9----29.96- 66.6 73.2----
2024-05-22 12:48 amSSE 1.9 2.9----29.96- 66.7 73.2----
2024-05-22 12:42 amSSE 2.9 5.1----29.96- 66.9 73.2----
2024-05-22 12:36 amSSE 4.1 6.0----29.96- 67.1 73.2----
2024-05-22 12:30 amSSE 4.1 6.0----29.96- 67.3 73.2----
2024-05-22 12:24 amSSE 5.1 6.0----29.96- 67.6 73.2----
2024-05-22 12:18 am SE 5.1 7.0----29.96- 67.8 73.4----
2024-05-22 12:12 am SE 6.0 7.0----29.96- 68.0 73.4----
2024-05-22 12:06 am SE 5.1 6.0----29.96- 68.0 73.4----
2024-05-22 12:00 amSSE 5.1 6.0----29.96+0.01 68.0 73.4----
2024-05-21 11:54 pm SE 5.1 6.0----29.96- 68.2 73.4----
2024-05-21 11:48 pmSSE 4.1 4.1----29.96- 68.0 73.4----
2024-05-21 11:42 pmSSE 4.1 5.1----29.96- 68.2 73.6----
2024-05-21 11:36 pmSSE 5.1 5.1----29.96- 68.5 73.6----
2024-05-21 11:30 pmSSE 5.1 6.0----29.96- 68.7 73.6----
2024-05-21 11:24 pm SE 5.1 6.0----29.96- 68.9 73.6----
2024-05-21 11:18 pm SE 2.9 5.1----29.96- 68.7 73.6----
2024-05-21 11:12 pmSSE 4.1 5.1----29.96- 68.7 73.6----
2024-05-21 11:06 pmSSE 4.1 5.1----29.96- 68.7 73.6----
2024-05-21 11:00 pmSSE 2.9 6.0----29.96+0.02 69.1 73.6----
2024-05-21 10:54 pm SE 5.1 6.0----29.97- 69.3 73.6----
2024-05-21 10:48 pmSSE 4.1 5.1----29.97- 69.3 73.8----
2024-05-21 10:42 pmSSE 4.1 5.1----29.97- 69.6 73.8----
2024-05-21 10:36 pmSSE 4.1 6.0----29.97- 69.6 73.8----
2024-05-21 10:30 pmSSE 4.1 5.1----29.97- 70.0 73.8----
2024-05-21 10:24 pmSSE 4.1 8.0----29.97- 70.2 73.8----
2024-05-21 10:18 pmSSE 6.0 7.0----29.97- 70.3 73.8----
2024-05-21 10:12 pm SE 5.1 8.0----29.97- 70.7 73.9----
2024-05-21 10:06 pmSSE 5.1 7.0----29.97- 70.9 73.9----
2024-05-21 10:00 pmSSE 6.0 8.0----29.97+0.01 71.2 74.1----
2024-05-21 09:54 pmSSE 5.1 7.0----29.96- 71.2 74.1----
2024-05-21 09:48 pmSSE 5.1 6.0----29.96- 71.2 74.1----
2024-05-21 09:42 pmSSE 4.1 5.1----29.96- 71.2 74.3----
2024-05-21 09:36 pmSSE 1.9 4.1----29.96- 71.1 74.5----
2024-05-21 09:30 pmSSE 2.9 4.1----29.96- 71.1 74.8----
2024-05-21 09:24 pm SE 1.0 1.9----29.96- 71.1 74.8----
2024-05-21 09:18 pmSSE 1.9 2.9----29.96- 71.2 74.8----
2024-05-21 09:12 pmSSE 2.9 6.0----29.95- 71.4 74.8----
2024-05-21 09:06 pm SE 6.0 8.9----29.95- 71.4 74.8----
2024-05-21 09:00 pm SE 8.0 9.9----29.95-0.01 71.4 74.8----
2024-05-21 08:54 pm SE 8.0 11.1----29.94- 71.6 75.0----
2024-05-21 08:48 pm SE 8.9 11.1----29.95- 71.6 75.0----
2024-05-21 08:42 pm SE 8.9 11.1----29.94- 71.6 75.0----
2024-05-21 08:36 pm SE 9.9 11.1----29.94- 71.6 75.0----
2024-05-21 08:30 pmSSE 8.9 9.9----29.94- 71.8 75.0----
2024-05-21 08:24 pm SE 8.0 11.1----29.94- 72.1 75.0----
2024-05-21 08:18 pm SE 8.9 11.1----29.94- 72.1 75.0----
2024-05-21 08:12 pm SE 8.9 12.0----29.94- 72.1 75.0----
2024-05-21 08:06 pm SE 9.9 11.1----29.94- 72.5 75.0----
2024-05-21 08:00 pm SE 8.9 11.1----29.94+0.00 72.5 75.0----
2024-05-21 07:54 pm SE 8.9 12.0----29.95- 72.9 75.0----
2024-05-21 07:48 pm SE 9.9 12.0----29.95- 73.0 75.0----
2024-05-21 07:42 pmESE 9.9 13.0----29.95- 73.0 75.2----
2024-05-21 07:36 pmESE 9.9 12.0----29.95- 73.0 75.2----
2024-05-21 07:30 pmESE 9.9 13.0----29.95- 73.2 75.2----
2024-05-21 07:24 pmESE 11.1 13.0----29.95- 73.2 75.2----
2024-05-21 07:00 pmESE 9.9 12.0----29.95+0.00 73.4 75.2----
2024-05-21 06:54 pmESE 8.9 12.0----29.95- 73.6 75.0----